Date,TemperatureHighF,TemperatureAvgF,TemperatureLowF,DewpointHighF,DewpointAvgF,DewpointLowF,HumidityHigh,HumidityAvg,HumidityLow,PressureMaxIn,PressureMinIn,WindSpeedMaxMPH,WindSpeedAvgMPH,GustSpeedMaxMPH,PrecipitationSumIn
2013-1-1,39.9,38.7,37.4,29.7,29.4,28.9,72,69,66,29.97,29.91,4,1,8,0.00
2013-1-2,29.8,28.9,27.7,11.6,10.8,9.0,48,46,44,30.21,30.14,3,0,5,0.00
2013-1-3,36.5,27.6,17.2,19.9,15.4,9.7,77,60,45,30.23,30.10,3,0,4,0.00
2013-1-4,40.1,34.9,32.2,24.3,20.7,18.9,61,56,51,30.17,30.06,4,2,10,0.00
2013-1-5,41.4,34.7,29.8,25.5,21.8,19.1,73,59,52,30.34,30.11,5,1,9,0.00
2013-1-6,48.4,38.4,26.2,32.7,27.5,20.5,85,66,47,30.17,29.99,3,0,7,0.00
2013-1-7,42.8,37.6,23.9,30.8,26.2,18.4,79,64,54,30.40,30.11,5,1,7,0.00
2013-1-8,49.5,31.5,20.5,35.1,24.7,16.4,87,77,56,30.39,30.32,2,0,4,0.00
2013-1-9,43.9,34.1,23.0,39.1,29.8,19.2,89,84,76,30.37,30.20,2,0,4,0.00
2013-1-10,51.3,43.8,36.5,32.7,29.7,27.0,80,58,44,30.58,30.34,3,1,11,0.00
2013-1-11,45.5,39.1,33.4,40.1,34.5,27.5,98,84,70,30.48,30.07,2,0,2,0.16
2013-1-12,50.2,42.0,39.4,46.2,41.1,39.1,99,97,86,30.14,30.06,2,0,2,0.00
2013-1-13,52.5,52.5,52.5,52.0,52.0,52.0,98,98,98,29.94,29.93,0,0,1,0.00
2013-1-14,48.4,46.1,42.3,37.2,36.6,36.0,82,70,62,30.27,30.24,2,1,2,0.05
2013-1-15,39.0,35.4,33.1,38.0,31.6,30.9,96,86,77,30.23,30.14,3,1,6,0.39
2013-1-16,38.8,35.8,32.7,38.1,34.2,30.8,97,94,92,30.15,29.85,2,0,3,0.56
2013-1-17,43.3,40.3,35.2,39.5,30.2,25.6,97,67,52,30.09,29.93,4,1,7,0.00
2013-1-19,57.6,44.9,37.4,31.5,29.2,28.3,71,55,37,30.03,29.91,2,0,4,0.00
2013-1-20,54.3,40.6,30.0,33.0,20.3,6.9,76,49,21,30.06,29.79,8,2,13,0.00
2013-1-21,40.8,31.9,25.5,25.1,16.0,5.4,59,52,38,30.08,29.78,8,1,13,0.00
2013-1-22,26.4,18.1,14.0,5.4,-8.1,-12.9,41,29,21,30.27,29.94,6,3,11,0.00
2013-1-23,25.2,17.4,8.4,4.3,-5.2,-9.6,50,36,23,30.34,30.13,4,1,8,0.00
2013-1-24,26.4,19.7,15.1,9.8,2.3,-9.4,74,49,25,30.50,30.08,5,1,10,0.09
2013-1-25,22.5,18.6,14.5,12.8,3.8,-6.9,72,53,33,30.49,30.04,2,0,2,0.00
2013-1-26,34.0,25.8,18.7,21.9,16.6,11.2,78,68,54,30.32,30.06,2,0,4,0.03
2013-1-27,39.7,30.2,24.6,20.8,16.8,13.2,69,57,44,30.56,30.46,3,0,4,0.00
2013-1-28,39.4,33.8,28.0,37.8,29.5,18.5,95,84,67,30.45,30.01,2,0,6,0.15
2013-1-29,68.9,50.0,36.7,54.9,45.1,34.0,95,84,61,30.06,29.93,2,0,2,0.00
2013-1-30,69.4,55.0,42.6,61.2,52.5,41.1,96,92,74,29.93,29.23,4,0,7,1.64
2013-1-31,54.9,39.8,28.6,53.7,24.8,6.8,96,56,36,29.87,29.14,10,4,20,0.49